Location: Czaplinek
(51.9489°N, 21.1342°E)
Time: 03:17:39
(UTC+00:00)

Daily predictions for brighter satellites

Satellite Brightness Start Highest point End
(mag) Time Altitude Azimuth Time Altitude Azimuth Time Altitude Azimuth
USA 234 4.0 01:07:23 10° ENE 01:12:02 48° ENE 01:12:02 48° ENE
Cosmos 1980 Rocket 4.2 01:12:46 21° NNE 01:14:03 23° NE 01:18:26 10° E
SL-16 R/B 4.5 01:18:45 16° N 01:18:45 16° N 01:20:25 10° NNE
ADEOS Rocket 4.4 01:12:21 10° ESE 01:17:04 30° ENE 01:21:59 10° N
IDEFIX/ARIANE 42P 4.0 01:35:07 10° NNE 01:38:05 33° NNE 01:38:05 33° NNE
MSX 4.3 01:43:35 10° NNE 01:49:00 55° E 01:49:00 55° E
Cosmos 2279 Rocket 4.2 01:45:56 10° N 01:52:09 67° ENE 01:58:17 10° SSE
NOSS 3-2 (C) 3.9 01:55:54 52° SE 01:55:59 52° SE 02:02:21 10° NE
CENTAUR R/B 2.8 02:03:00 55° SSE 02:03:40 58° SE 02:10:41 10° NE
CZ-4B R/B 4.4 02:02:28 10° ESE 02:04:01 16° E 02:04:01 16° E
Cosmos 2369 4.2 02:07:29 44° N 02:08:57 57° NE 02:14:32 10° SE
Cosmos 2082 Rocket 4.4 02:13:52 10° SSE 02:18:01 22° ESE 02:22:10 10° NE
SL-16 R/B 4.2 02:17:33 10° NNW 02:22:04 23° NE 02:26:34 10° E
CZ-2C R/B 3.1 02:22:28 10° NNE 02:27:22 53° E 02:29:29 31° SSE
ARIANE 5 R/B 3.7 02:22:39 10° N 02:25:18 30° N 02:25:18 30° N
PSLV R/B 4.3 02:23:54 10° NNE 02:28:05 49° E 02:28:33 47° ESE
ISS -1.3 02:36:08 19° ESE 02:36:08 19° ESE 02:37:53 10° E
Cosmos 1697 Rocket 2.5 02:35:00 58° NW 02:36:13 87° WSW 02:41:53 10° SSE
ADEOS II 3.9 02:33:40 10° N 02:35:25 18° NNW 02:35:25 18° NNW
Cosmos 2344 3.5 02:37:40 49° WSW 02:39:58 80° NW 02:48:28 10° NE
Lacrosse 4 Rocket 1.8 02:42:02 60° ENE 02:42:02 60° ENE 02:45:31 10° NE
COSMOS 2406 3.5 02:39:30 33° S 02:42:00 64° ESE 02:47:38 10° NE
USA 238 DEB 3.6 02:41:03 56° WSW 02:42:31 74° NW 02:49:32 10° NE
USA 238 3.6 02:41:08 56° WSW 02:42:37 75° NW 02:49:39 10° NE
NOSS 3-2 (A) 3.4 02:44:26 57° W 02:45:26 66° NW 02:52:17 10° NE
Cosmos 2360 Rocket 4.4 02:42:18 10° NNW 02:46:19 19° NNE 02:50:19 10° ENE
Lacrosse 5 rocket 2.3 02:50:06 34° SE 02:50:14 34° SE 02:53:42 10° ENE
ATLAS 3B R/B 3.6 02:45:50 10° S 02:51:56 43° ESE 02:58:10 10° NE
PAYLOAD A 3.9 02:48:08 10° NNE 02:53:15 87° WNW 02:55:43 33° SSW
Cosmos 967 Rocket 4.3 02:52:39 36° NW 02:55:23 75° SW 03:01:38 10° SSE
USA 234 3.4 02:50:30 10° ENE 02:56:58 65° NNW 02:59:22 40° WNW
Cosmos 1980 Rocket 2.2 02:54:36 17° NNW 02:58:58 80° ENE 03:04:35 10° SSE
Cosmos 1726 Rocket 4.1 02:56:33 10° N 03:00:58 60° ENE 03:05:23 10° SSE
ADEOS Rocket 2.8 02:57:03 10° S 03:02:24 53° W 03:07:57 10° NNW
SL-16 R/B 4.4 03:00:46 10° NNW 03:02:30 11° N 03:04:16 10° N
Cosmos 1025 Rocket 4.2 03:05:19 30° NNW 03:05:19 30° NNW 03:07:55 10° N
Cosmos 494 Rocket 4.4 03:04:22 41° NW 03:04:22 41° NW 03:09:21 10° NNE
SAR-Lupe-4 4.3 03:01:21 10° SSE 03:04:50 53° ENE 03:08:21 10° N
ERS-2 3.4 03:02:46 10° S 03:04:42 30° S 03:04:42 30° S
Cosmos 2228 3.0 03:02:02 10° N 03:06:26 87° E 03:10:49 10° S
Nadezhda 4 Rocket 3.9 03:01:22 10° S 03:07:29 87° E 03:13:42 10° N
Geosat 3.9 03:03:34 10° SSE 03:08:33 66° WSW 03:10:57 31° NW
ADEOS 4.1 03:03:56 10° NNE 03:09:08 59° ESE 03:14:17 10° S
Aureole 3 4.4 03:06:39 10° N 03:10:33 52° ENE 03:15:27 10° SSE
Cosmos 1269 Rocket 4.0 03:09:18 43° WSW 03:10:49 61° WNW 03:16:07 10° NNE
Abrixas rocket 4.1 03:12:49 18° SSE 03:12:49 18° SSE 03:13:57 10° SE
Cosmos 2360 4.2 03:13:18 25° NW 03:16:35 58° WSW 03:22:08 10° S
Cosmos 1606 Rocket 3.4 03:12:21 10° NNW 03:16:51 80° W 03:21:19 10° S
Cosmos 1400 Rocket 2.8 03:15:02 10° N 03:19:01 77° ENE 03:22:55 10° SSE
SJ-6F 4.4 03:15:06 10° NNE 03:19:14 86° ESE 03:23:21 10° SSW
IDEFIX/ARIANE 42P 3.7 03:15:18 10° N 03:18:53 25° NW 03:18:53 25° NW
SAR-Lupe-1 4.1 03:19:08 10° SSE 03:22:42 79° ENE 03:26:18 10° NNW
Intercosmos 24 3.7 03:23:58 10° NNW 03:27:56 54° W 03:31:23 10° S
Cosmos 2278 3.6 03:24:14 13° NW 03:29:16 64° WSW 03:34:50 10° SSE
COSMO-SKYMED 1 2.8 03:25:50 10° SSE 03:30:09 73° ENE 03:34:31 10° N
Cosmos 2322 Rocket 3.3 03:25:19 10° NNW 03:30:45 43° NE 03:36:08 10° ESE
Meteor 2-10 Rocket 4.2 03:26:37 10° N 03:31:33 53° ENE 03:36:29 10° SSE
ALOS 2.2 03:28:26 10° NNE 03:33:09 89° E 03:37:50 10° SSW
Cosmos 1300 2.6 03:29:28 10° NNW 03:33:16 61° W 03:37:01 10° S
Cosmos 220 Rocket 4.4 03:32:31 35° WNW 03:33:30 40° WSW 03:37:37 10° S
CZ-4B R/B 1.7 03:33:31 10° S 03:36:51 44° W 03:37:09 42° W
Cosmos 1992 Rocket 4.2 03:34:01 13° NW 03:38:28 46° WSW 03:43:25 10° S
Cosmos 1833 Rocket 2.6 03:33:51 15° SW 03:38:38 70° WNW 03:44:18 10° NNE
Cosmos 1674 4.0 03:42:36 22° NW 03:42:36 22° NW 03:44:47 10° NNW
SL-14 R/B 3.2 03:37:36 10° SSW 03:41:34 64° WNW 03:45:37 10° N
Cosmos 1626 2.2 03:39:54 19° SW 03:42:17 49° WNW 03:45:55 10° N
METEOR-M 4.1 03:38:00 10° NNE 03:43:23 87° ESE 03:48:44 10° SSW
Cosmos 1689 Rocket 1.9 03:41:40 10° SSE 03:44:36 84° WSW 03:47:33 10° NNW
deb Chang Zheng 4 3.4 03:40:24 10° NNE 03:44:41 83° WNW 03:48:56 10° SSW
NOSS 3-2 (C) 3.8 03:43:22 24° W 03:46:59 51° NNW 03:53:47 10° NE
deb Kosmos-1763 4.0 03:46:47 20° SW 03:49:04 58° WNW 03:52:38 10° NNE
Cosmos 1315 Rocket 3.4 03:46:36 10° N 03:50:42 62° ENE 03:54:47 10° SSE
Cosmos 1553 Rocket 4.1 03:44:52 10° N 03:51:03 76° E 03:57:07 10° SSE
SJ-12 4.2 03:47:00 10° NNE 03:51:10 73° ESE 03:55:15 10° S
Cosmos 2058 Rocket 3.0 03:46:42 10° NNW 03:51:13 71° W 03:55:40 10° S
SL-19 R/B 3.4 03:49:46 10° NNE 03:52:37 86° ESE 03:55:28 10° SSW
Cosmos 2369 4.4 03:49:30 17° NW 03:52:51 31° WSW 03:57:43 10° SSW
SKYMED 3 4.5 03:49:53 10° S 03:54:12 68° WSW 03:58:33 10° NNW
Okean 1-7 Rocket 3.8 03:49:49 10° S 03:54:21 79° E 03:58:53 10° NNE
CENTAUR R/B 3.0 03:50:12 21° W 03:54:34 51° NNW 04:01:58 10° NE
Cosmos 1484 Rocket 2.9 03:51:53 10° N 03:55:40 51° WNW 03:59:22 10° SSW
Meteor 1-24 Rocket 3.7 03:52:12 10° SSW 03:57:51 69° WNW 04:03:45 10° N
H-2A R/B 4.5 03:54:43 10° NNE 03:58:17 36° E 04:01:51 10° SSE
Cosmos 2082 Rocket 2.1 03:55:52 10° SW 04:01:29 77° WNW 04:07:10 10° NNE
Cosmos 1461 3.1 03:57:49 12° SW 04:02:09 72° NW 04:06:55 10° NE
Cosmos 1892 Rocket 3.5 03:58:52 10° SSW 04:03:11 64° WNW 04:07:34 10° N
Cosmos 2026 Rocket 4.0 03:58:13 10° SSW 04:04:36 77° W 04:11:01 10° N
CZ-2C R/B 3.3 04:01:08 10° N 04:05:20 27° WNW 04:08:51 13° WSW
Meteor PRIRODA 3.8 04:01:41 10° NNE 04:05:21 78° ESE 04:09:01 10° S
ARIANE 5 R/B 4.4 04:04:12 10° NNW 04:05:33 11° NW 04:05:39 11° NW
Cosmos 614 Rocket 4.3 04:00:32 10° SSW 04:05:38 68° ESE 04:10:45 10° NNE
SL-16 R/B 2.3 04:01:20 10° NNW 04:07:03 82° ENE 04:12:44 10° SSE
Meteor 2-15 4.5 04:02:02 10° N 04:08:11 86° E 04:14:16 10° S
Cosmos 2195 Rocket 4.5 04:03:29 10° SSW 04:09:38 62° WNW 04:15:45 10° N
USA 290 2.4 04:06:52 10° SW 04:10:00 48° WNW 04:13:12 10° NNE
CREW DRAGON DEMO-1 DEB 3.7 04:08:42 21° WSW 04:10:10 34° SSW 04:12:56 10° SE
ISS -3.5 04:09:06 16° WSW 04:11:40 64° SSE 04:15:00 10° E
Cosmos 2251 Rocket 3.6 04:07:19 10° SW 04:12:38 63° WNW 04:17:57 10° NNE
Cosmos 2333 Rocket 3.9 04:11:53 10° NNW 04:16:52 30° NE 04:21:47 10° ESE
Meteor 2-1 Rocket 4.2 04:12:27 10° NNW 04:18:08 80° W 04:23:53 10° S
SKYMED 2 4.0 04:14:15 10° SSW 04:18:20 40° W 04:22:28 10° NNW
Cosmos 1697 Rocket 4.1 04:16:50 13° WNW 04:19:22 17° W 04:22:56 10° SW
Meteor 1-31 Rocket 3.3 04:16:39 10° N 04:20:21 39° WNW 04:24:02 10° SW
Lacrosse 4 Rocket 2.7 04:18:22 15° WNW 04:20:33 22° NW 04:23:49 10° NNE
PSLV R/B 4.4 04:17:02 10° S 04:21:02 41° W 04:25:04 10° NNW
Cosmos 1455 2.2 04:17:38 10° NNW 04:21:32 83° W 04:25:24 10° S
Cosmos 2237 Rocket 4.4 04:19:23 10° NNW 04:23:01 17° NNE 04:26:39 10° ENE
CZ-4B R/B 2.9 04:21:11 10° N 04:25:07 60° WNW 04:29:15 10° SSW
YAOGAN 6 4.1 04:22:48 10° NNE 04:26:21 42° E 04:29:50 10° S
COSMOS 2406 4.0 04:21:42 10° WSW 04:26:45 32° NW 04:31:49 10° NNE
Cosmos 1626 Rocket 3.7 04:22:44 10° S 04:27:12 85° ESE 04:31:43 10° NNE
FENGYUN 3A 4.1 04:22:26 10° N 04:27:28 39° WNW 04:32:29 10° SW
[s.n.46727] 3.0 04:25:33 10° WSW 04:28:15 59° SSE 04:30:59 10° ENE
[s.n.46723] 3.0 04:25:35 10° WSW 04:28:20 59° SSE 04:31:07 10° ENE
[s.n.46707] 3.0 04:25:44 10° WSW 04:28:26 59° SSE 04:31:10 10° ENE
[s.n.46708] 3.0 04:25:48 10° WSW 04:28:31 59° SSE 04:31:15 10° ENE
[s.n.46719] 3.0 04:25:55 10° WSW 04:28:37 59° SSE 04:31:21 10° ENE
[s.n.46724] 3.0 04:25:59 10° WSW 04:28:42 59° SSE 04:31:26 10° ENE
[s.n.46687] 3.0 04:26:04 10° WSW 04:28:47 59° SSE 04:31:31 10° ENE
[s.n.46696] 3.0 04:26:10 10° WSW 04:28:53 59° SSE 04:31:37 10° ENE
[s.n.46720] 3.0 04:26:16 10° WSW 04:28:59 59° SSE 04:31:42 10° ENE
[s.n.46676] 3.0 04:26:21 10° WSW 04:29:04 59° SSE 04:31:48 10° ENE
Okean O Rocket 3.7 04:25:09 10° NNE 04:29:05 32° E 04:33:01 10° SSE
[s.n.46721] 3.0 04:26:27 10° WSW 04:29:10 59° SSE 04:31:53 10° ENE
Lacrosse 5 rocket 1.2 04:25:46 11° WSW 04:29:13 60° NNW 04:33:04 10° ENE
[s.n.46728] 3.0 04:26:32 10° WSW 04:29:15 60° SSE 04:31:58 10° ENE
[s.n.46690] 3.0 04:26:38 10° WSW 04:29:20 60° SSE 04:32:04 10° ENE
[s.n.46694] 3.0 04:26:41 10° WSW 04:29:25 60° SSE 04:32:07 10° ENE
Cosmos-2242 4.2 04:25:15 10° N 04:29:28 47° ENE 04:33:43 10° SSE
[s.n.46702] 3.0 04:26:48 10° WSW 04:29:32 60° SSE 04:32:15 10° ENE
[s.n.46679] 3.0 04:26:52 10° WSW 04:29:35 60° SSE 04:32:19 10° ENE
[s.n.46704] 3.0 04:26:55 10° WSW 04:29:40 60° SSE 04:32:27 10° ENE
Meteor 2-5 Rocket 4.4 04:24:30 10° SW 04:29:42 35° WNW 04:35:03 10° N
[s.n.46712] 3.0 04:27:01 10° WSW 04:29:44 60° SSE 04:32:27 10° ENE
[s.n.46711] 3.0 04:27:09 10° WSW 04:29:52 60° SSE 04:32:36 10° ENE
[s.n.46684] 3.0 04:27:12 10° WSW 04:29:54 60° SSE 04:32:38 10° ENE
[s.n.46706] 3.0 04:27:20 10° WSW 04:30:03 60° SSE 04:32:47 10° ENE
[s.n.46678] 3.0 04:27:19 10° WSW 04:30:05 61° SSE 04:32:51 10° ENE
[s.n.46677] 3.0 04:27:28 10° WSW 04:30:11 60° SSE 04:32:55 10° ENE
Cosmos 1602 Rocket 4.0 04:25:49 10° S 04:30:13 70° E 04:34:42 10° NNE
[s.n.46671] 3.0 04:27:33 10° WSW 04:30:16 60° SSE 04:33:00 10° ENE
[s.n.46675] 3.0 04:27:39 10° WSW 04:30:22 61° SSE 04:33:06 10° ENE
[s.n.46674] 3.0 04:27:44 10° WSW 04:30:28 61° SSE 04:33:11 10° ENE
[s.n.46698] 3.0 04:27:50 10° WSW 04:30:33 61° SSE 04:33:17 10° ENE
[s.n.46699] 3.0 04:27:52 10° WSW 04:30:37 61° SSE 04:33:24 10° ENE
[s.n.46715] 2.9 04:28:01 10° WSW 04:30:44 61° SSE 04:33:28 10° ENE
[s.n.46714] 2.9 04:28:06 10° WSW 04:30:49 61° SSE 04:33:33 10° ENE
[s.n.46726] 2.9 04:28:11 10° WSW 04:30:55 61° SSE 04:33:39 10° ENE
[s.n.46703] 2.9 04:28:16 10° WSW 04:31:00 61° SSE 04:33:44 10° ENE
[s.n.46713] 2.9 04:28:23 10° WSW 04:31:05 61° SSE 04:33:50 10° ENE
[s.n.46717] 2.9 04:28:28 10° WSW 04:31:10 61° SSE 04:33:55 10° ENE
[s.n.46691] 3.0 04:28:30 10° WSW 04:31:15 62° SSE 04:34:02 10° ENE
[s.n.46693] 2.9 04:28:38 10° WSW 04:31:22 61° SSE 04:34:06 10° ENE
[s.n.46672] 2.9 04:28:44 10° WSW 04:31:27 61° SSE 04:34:12 10° ENE
Cosmos 2360 Rocket 2.7 04:25:53 10° NNW 04:31:30 63° NE 04:37:03 10° SE
[s.n.46701] 2.9 04:28:49 10° WSW 04:31:33 62° SSE 04:34:17 10° ENE
[s.n.46685] 2.9 04:28:55 10° WSW 04:31:38 62° SSE 04:34:23 10° ENE
[s.n.46709] 2.9 04:29:00 10° WSW 04:31:43 62° SSE 04:34:28 10° ENE
[s.n.46683] 2.9 04:29:05 10° WSW 04:31:48 62° SSE 04:34:33 10° ENE
[s.n.46695] 2.9 04:29:10 10° WSW 04:31:54 62° SSE 04:34:38 10° ENE
[s.n.46688] 2.9 04:29:17 10° WSW 04:32:00 62° SSE 04:34:45 10° ENE
[s.n.46729] 2.9 04:29:21 10° WSW 04:32:05 62° SSE 04:34:49 10° ENE
[s.n.46697] 2.9 04:29:24 10° WSW 04:32:08 62° SSE 04:34:52 10° ENE
[s.n.46725] 2.9 04:29:29 10° WSW 04:32:12 62° SSE 04:34:57 10° ENE
[s.n.46682] 2.9 04:29:34 10° WSW 04:32:18 62° SSE 04:35:03 10° ENE
[s.n.46680] 2.9 04:29:41 10° WSW 04:32:24 62° SSE 04:35:09 10° ENE
[s.n.46718] 2.9 04:29:46 10° WSW 04:32:30 62° SSE 04:35:15 10° ENE
[s.n.46710] 2.9 04:29:51 10° WSW 04:32:35 62° SSE 04:35:20 10° ENE
[s.n.46673] 2.9 04:30:02 10° WSW 04:32:46 63° SSE 04:35:30 10° ENE
[s.n.46700] 2.9 04:30:08 10° WSW 04:32:52 63° SSE 04:35:36 10° ENE
[s.n.46705] 2.9 04:30:13 10° WSW 04:32:57 63° SSE 04:35:42 10° ENE
[s.n.46692] 2.9 04:30:19 10° WSW 04:33:03 63° SSE 04:35:48 10° ENE
[s.n.46686] 2.9 04:30:24 10° WSW 04:33:08 63° SSE 04:35:53 10° ENE
[s.n.46716] 2.9 04:30:30 10° WSW 04:33:14 63° SSE 04:35:59 10° ENE
[s.n.46722] 2.9 04:30:35 10° WSW 04:33:20 63° SSE 04:36:04 10° ENE
[s.n.46689] 2.9 04:30:41 10° WSW 04:33:25 63° SSE 04:36:10 10° ENE
[s.n.46681] 2.9 04:30:46 10° WSW 04:33:30 63° SSE 04:36:15 10° ENE
DNEPR-1 R/B 3.8 04:28:26 10° NW 04:33:49 78° SW 04:38:18 10° SE
Cosmos 1703 4.1 04:30:13 10° S 04:34:00 56° E 04:37:51 10° NNE
Cosmos 1812 Rocket 3.5 04:30:20 10° NNW 04:34:42 83° W 04:39:02 10° S
PSLV R/B 4.0 04:32:53 10° NNE 04:37:02 87° ESE 04:41:09 10° SSW
USA 234 3.6 04:33:13 10° E 04:39:38 60° N 04:46:02 10° WNW
Cosmos 1980 Rocket 3.4 04:38:18 10° NW 04:42:20 21° W 04:46:21 10° SSW
ATLAS 3B R/B 2.7 04:35:58 10° WSW 04:42:28 61° NW 04:49:10 10° NE
Cosmos 2098 Rocket 3.4 04:37:39 10° SSW 04:43:27 75° W 04:48:03 10° N
SMAP 4.3 04:40:48 10° NNE 04:45:21 49° E 04:49:52 10° S
Meteor 1-21 Rocket 4.4 04:39:48 10° SSW 04:45:39 86° WNW 04:51:37 10° NNE
Cosmos 2084 Rocket 4.2 04:42:06 10° NW 04:46:22 51° NE 04:50:45 10° ESE
Envisat 3.3 04:41:42 10° NNE 04:46:49 74° ESE 04:51:54 10° S
ATLAS CENTAUR R/B 2.6 04:44:02 10° SSW 04:47:43 42° SE 04:51:16 10° NE
ADEOS 4.5 04:43:59 10° N 04:48:20 27° WNW 04:52:40 10° WSW
CZ-2C R/B 3.3 04:43:09 10° SSE 04:48:41 66° ENE 04:54:17 10° N
SL-16 R/B 4.4 04:46:25 10° N 04:49:21 14° NNE 04:52:17 10° NE
CZ-3 R/B 4.4 04:47:36 10° WSW 04:55:46 16° SW 05:00:28 10° S
